DECAYED

CZ-7 DEB, 61985 (Decayed)

Orbit data source: Space-Track

CZ-7 DEB, 61985 was space debris in LEO originally from a launch on Fri, 15 Nov 2024 UTC launched from the Wenchang Satellite Launch Center (WSC). Debris objects in space refer to the collection of defunct objects orbiting the Earth. Examples of debris include non-operational satellites, rocket bodies, and fragments generated from explosions, collisions, or faulty payload assembly.

Not visible in the next 10 days
Identifier
61985, 2024-211C
Orbit
Decayed
Last TLE update
8 months ago
Origin
Manufacturer
CALT
Mission
Decayed spacecraft
Bus & Motor
Unknown
Mass
Unknown
Launch date (UTC)
2024-11-15 (8 months ago)
Launch vehicle
Unknown
Launch site
Wenchang Satellite Launch Center (WSC)
Object type
Payload
Rocket body
Debris
Shape & HBR
Unknown
Radar Cross Section
Medium (>0.1 m² and <1 m²)

Expand to show TLE details & history

TLE from 8 months ago
0 CZ-7 DEB
1 61985U 24211C   24322.12276153  .11069787  67666-5  62994-2 0  9996
2 61985  41.3258 230.1136 0138930 163.0962 197.4583 15.99971003   226
Epoch: 2024-11-17T02:56Z
TLE epoch observation values (Epoch: 2024-11-17T02:56:46.596Z)
Latitude
-0.00004°
Longitude
129.25297°
Altitude
362.342 km
Speed
7.643 km/s
True Right ascension
15h 20m 27s
True Declination
0° 00' 00"
Sunlit
Object was in daylight at epoch
Visualization orbit readout
Visualization observer readout
Orbital elements
Apogee altitude
369.251 km
Perigee altitude
184.338 km
Semi-major axis
6,654.932 km
Eccentricity
0.01389
Inclination
41.3258°
RAAN
230.1136°
Arg. of periapsis
163.0962°
True anomaly
Unknown
Mean anomaly
197.4583°
Eccentric anomaly
Unknown
Mean motion
3.99786 °/min
Orbital period
90.05 mins
BSTAR
0.0062994
Loading maneuver chart data...
Loading SW <> Apogee altitude chart data...
Loading historical data...
Loading historical data...
Loading historical data...
Loading historical data...
Loading historical data...
Loading historical data...
Loading historical data...

CZ-7 DEB Visibility

Observer location: undefined°, undefined°

This satellite is decayed
Span
Click to sort rows by Start time (UTC) header in descending order
Start Az.
Max El. time (UTC)
Max El. Az.
Max El.
End time (UTC)
End Az.
|